Location: La Chenaye
(47.0140°N, 0.8911°E)
Time: 23:15:50
(UTC+00:00)

Daily predictions for brighter satellites

Satellite Brightness Start Highest point End
(mag) Time Altitude Azimuth Time Altitude Azimuth Time Altitude Azimuth
CENTAUR R/B 3.7 16:34:40 10° W 16:40:08 34° NNW 16:46:51 10° NE
Cosmos 1697 Rocket 3.1 16:35:21 10° S 16:40:40 47° ESE 16:46:03 10° NE
Cosmos 2360 4.4 16:36:31 10° SSW 16:42:15 84° WNW 16:48:02 10° NNE
Cosmos 1626 Rocket 3.9 16:39:23 10° NNW 16:43:41 69° W 16:47:57 10° S
CZ-2D R/B 4.1 16:41:45 10° ESE 16:44:03 19° ENE 16:46:22 10° NNE
NOSS 2-3 (C) 4.4 16:41:51 10° S 16:44:39 23° ESE 16:47:30 10° ENE
Cosmos 2266 Rocket 4.0 16:43:28 10° N 16:49:33 61° ENE 16:55:31 10° SSE
Cosmos 1656 4.3 16:44:33 10° SW 16:50:06 57° WNW 16:55:43 10° NNE
Cosmos 2228 4.4 16:47:07 10° SW 16:51:06 39° WNW 16:55:07 10° N
Cosmos 1606 Rocket 4.1 16:47:56 10° SSE 16:52:01 39° E 16:56:10 10° NNE
Cosmos 1503 Rocket 4.0 16:48:59 10° SSW 16:54:13 82° ESE 16:59:26 10° NNE
Lacrosse 5 rocket 2.9 16:53:25 10° NW 16:56:03 18° N 16:58:38 10° NE
EXPRESS MD2 4.4 16:55:04 10° S 16:56:46 17° SE 16:58:52 10° E
Cosmos 1484 Rocket 2.9 16:55:42 10° S 16:59:12 69° WSW 17:02:41 10° NNW
CZ-4C R/B 3.2 16:52:36 10° NW 16:59:39 82° SW 17:08:25 10° SSE
UNK 3.9 16:55:17 10° NNE 16:59:46 51° E 17:04:10 10° S
Thor Agena Rocket 3.5 16:55:14 10° SSE 17:00:25 73° ENE 17:05:33 10° NNW
Cosmos 1544 Rocket 4.3 16:57:05 10° SSW 17:01:25 55° WNW 17:05:47 10° N
Cosmos 1743 3.0 16:58:46 10° NNW 17:01:58 56° W 17:05:07 10° S
NOSS 2-3 (D) 3.6 17:00:20 10° SSW 17:03:52 44° ESE 17:07:03 13° NE
NOSS 2-3 (E) 3.5 17:00:58 10° SSW 17:04:31 49° SE 17:07:43 13° NE
Cosmos 1354 Rocket 4.0 17:00:01 10° SSW 17:05:14 72° ESE 17:10:29 10° NNE
IGS 5A 3.6 17:02:42 10° S 17:06:39 74° WSW 17:10:39 10° NNW
Cosmos 1777 Rocket 4.3 17:02:15 10° SSW 17:07:29 68° WNW 17:12:43 10° NNE
Cosmos-2242 4.3 17:05:59 10° SE 17:09:01 19° E 17:11:23 13° NE
USA 238 DEB 3.9 17:03:28 10° S 17:09:08 44° ESE 17:14:48 12° NE
USA 238 4.0 17:03:35 10° S 17:09:15 43° ESE 17:14:54 12° NE
MOS 1 Rocket 3.8 17:05:21 10° SE 17:10:04 45° ENE 17:15:02 10° N
Cosmos 2151 3.3 17:05:56 10° NNW 17:10:05 70° W 17:14:13 10° S
Cosmos 1898 Rocket 4.5 17:08:57 10° SSE 17:13:09 26° E 17:16:31 14° NE
Gbstr 26 Del rocket 2.7 17:09:24 10° WSW 17:13:36 89° NNW 17:16:29 17° ENE
Cosmos 1726 Rocket 3.9 17:10:03 10° SSE 17:14:31 50° E 17:18:57 10° NNE
USA 215 4.0 17:12:07 12° ENE 17:17:32 38° N 17:23:29 10° WNW
AQUARIUS 4.3 17:13:24 10° SE 17:17:39 49° ENE 17:21:55 10° N
IRIDIUM 104 4.4 17:12:51 10° N 17:18:06 84° W 17:23:19 10° S
Cosmos 2082 4.3 17:13:04 10° NNW 17:18:15 34° NE 17:23:24 10° ESE
SMAP 3.0 17:14:16 10° SSE 17:18:56 87° ENE 17:23:37 10° NNW
Meteor 1-20 Rocket 4.5 17:14:26 10° NNW 17:19:53 70° W 17:25:19 10° S
Cosmos 1805 4.1 17:18:26 10° NNE 17:21:02 20° ENE 17:23:37 10° ESE
Cosmos 2297 Rocket 3.8 17:16:51 10° NW 17:22:04 39° WSW 17:27:16 10° S
Landsat 7 3.7 17:18:25 10° SSE 17:23:04 76° ENE 17:27:43 10° N
GEOS 3 Rocket 3.7 17:19:09 12° NE 17:24:06 71° SE 17:29:27 10° SSW
YAOGAN 1 3.5 17:22:33 10° ESE 17:25:59 24° ENE 17:29:26 10° NNE
Cosmos 1937 Rocket 4.5 17:24:28 10° SSE 17:28:42 26° E 17:30:51 20° ENE
SL-16 R/B 4.1 17:28:27 10° ESE 17:29:26 11° ESE 17:29:26 11° ESE
Okean 1-7 Rocket 4.1 17:26:41 10° NNW 17:31:01 61° W 17:35:18 10° S
Cosmos 990 Rocket 4.0 17:27:30 10° SSW 17:32:38 80° WNW 17:37:49 10° NNE
Cosmos 1461 4.3 17:29:40 10° WSW 17:33:07 29° NW 17:36:23 11° NNE
CZ-2D R/B 4.1 17:30:16 10° SE 17:34:00 32° ENE 17:37:42 10° N
SL-16 R/B 3.4 17:29:50 10° N 17:35:48 50° WNW 17:41:43 10° SW
COSMOS 2455 4.0 17:32:46 10° SSE 17:37:13 22° ESE 17:38:36 20° E
SKYMED 2 4.1 17:35:14 18° NE 17:37:59 37° E 17:42:00 10° SSE
Okean 1 3.9 17:35:06 10° SSE 17:38:13 28° E 17:38:21 28° E
SJ-6F 4.2 17:40:20 10° SSE 17:44:18 78° ENE 17:48:21 10° N
Cosmos 1980 Rocket 2.1 17:39:22 10° SSW 17:44:59 69° ESE 17:49:21 17° NNE
Cosmos 1844 Rocket 3.7 17:40:36 10° N 17:45:08 24° NE 17:45:49 23° ENE
Cosmos 2219 3.2 17:39:53 10° NNW 17:45:35 61° ENE 17:51:16 10° SE
Aureole 1 Rocket 3.4 17:42:28 10° S 17:46:58 68° ESE 17:51:47 14° NNE
Cosmos 1953 Rocket 3.5 17:43:32 10° N 17:48:01 86° E 17:52:28 10° S
Meteor 1-26 Rocket 4.3 17:43:07 10° SSE 17:48:17 48° E 17:52:48 13° NNE
PSLV R/B 4.0 17:49:59 33° ENE 17:50:05 33° ENE 17:53:46 10° N
ARIANE 5 R/B 3.0 17:47:02 10° S 17:52:03 63° WSW 17:57:10 10° NNW
SL-19 R/B 4.5 17:47:53 10° SE 17:53:02 45° ENE 17:58:29 10° N
Cosmos 2263 Rocket 2.2 17:48:05 10° NNW 17:53:48 84° WSW 17:59:29 10° SSE
BREEZE-M DEB (TANK) 3.0 17:53:05 10° SW 17:56:56 37° SSE 17:57:14 36° SE
Meteor 1-5 Rocket 4.5 17:53:02 10° NNW 17:58:22 67° W 18:03:49 10° S
NOSS 3-2 (C) 4.3 17:54:02 10° WSW 17:58:55 38° NW 18:03:20 16° NNE
Cosmos 1680 Rocket 3.9 17:54:16 10° N 17:59:08 37° ENE 18:00:24 32° E
COSMO-SKYMED 1 2.8 17:59:08 39° E 17:59:19 39° E 18:03:11 10° SSE
BREEZE-M DEB (TANK) 3.8 17:55:45 10° WNW 17:59:19 82° NNE 18:06:53 19° ESE
NOAA 6 4.3 17:57:34 10° SE 18:02:20 42° ENE 18:07:07 10° N
Cosmos 1076 Rocket 4.0 17:58:22 10° NNW 18:02:38 60° W 18:06:52 10° S
Cosmos 2369 3.8 17:57:06 10° S 18:02:40 55° ESE 18:05:20 30° NE
Meteor 2-10 4.1 17:57:27 10° N 18:02:54 86° E 18:08:29 10° S
Cosmos 1655 Rocket 4.4 18:05:26 10° NNW 18:11:35 63° W 18:17:41 10° S
USA 81 4.0 18:06:46 10° N 18:12:04 84° W 18:17:20 10° S
Cosmos 44 Rocket 4.1 18:07:27 10° NNW 18:11:53 33° NE 18:11:53 33° NE
Cosmos 2227 Rocket 3.8 18:08:39 10° NW 18:13:43 35° WSW 18:18:46 10° S
SPOT 1/Viking Rocket 3.6 18:10:54 10° S 18:16:06 79° WSW 18:21:21 10° NNW
Cosmos 2058 Rocket 3.4 18:18:51 10° SSW 18:23:17 67° W 18:26:26 19° N
Cosmos 1697 Rocket 4.2 18:19:49 10° WSW 18:24:49 32° NW 18:29:16 13° N
OceanSat 1 rocket 4.4 18:21:02 10° SSE 18:25:45 71° ENE 18:30:27 10° N
Cosmos 2333 Rocket 3.9 18:27:43 10° SSE 18:29:34 18° SSE 18:29:34 18° SSE
CENTAUR R/B 4.3 18:27:48 10° NW 18:33:09 23° N 18:35:36 20° NNE
Lacrosse 5 rocket 3.3 18:31:15 10° NW 18:32:26 16° NNW 18:32:26 16° NNW
Meteor 2-11 Rocket 4.3 18:28:49 10° N 18:35:01 78° E 18:41:10 10° SSE
MINOTAUR IV R/B 4.4 18:30:54 10° NNW 18:35:20 87° WSW 18:35:26 85° SSW
Meteor 1-14 Rocket 4.1 18:33:28 10° N 18:39:10 63° ENE 18:39:10 63° ENE
Resurs 1-3 4.0 18:38:47 10° S 18:43:01 59° W 18:47:18 10° NNW
Cosmos 2322 Rocket 4.4 18:38:48 10° SSE 18:39:03 11° SSE 18:39:03 11° SSE
Cosmos-2242 4.2 18:41:43 10° SSW 18:45:44 41° WNW 18:47:46 25° NNW
Cosmos 1898 Rocket 4.3 18:49:54 10° SW 18:54:51 46° WNW 18:56:44 32° NNW
Cosmos 1844 4.4 18:50:51 10° NNW 18:54:37 41° N 18:54:37 41° N
USA 215 3.7 18:59:28 42° NNE 18:59:42 43° NNE 19:05:48 10° NW
USA 238 DEB 4.3 18:54:02 10° WSW 19:00:00 47° NW 19:02:15 35° N
USA 238 4.2 18:54:07 10° WSW 19:00:06 48° NW 19:02:21 35° N
Cosmos 1553 Rocket 4.4 18:54:03 10° SSW 19:00:08 60° WNW 19:06:22 10° N
S3M 4.2 18:54:18 10° S 18:59:17 55° SSE 18:59:17 55° SSE
Cosmos 2112 Rocket 4.4 18:55:43 10° NNW 18:59:47 56° NNW 18:59:47 56° NNW
YAOGAN 1 4.0 18:57:43 10° SSW 19:01:39 36° W 19:05:37 10° NNW
BREEZE-M DEB (TANK) 3.5 19:00:31 10° SW 19:06:16 57° SSW 19:06:16 57° SSW
Cosmos 1937 Rocket 4.3 19:05:20 10° SW 19:10:18 46° WNW 19:10:58 43° NW
Meteor 2-6 Rocket 4.5 19:04:54 10° SSW 19:10:33 67° WNW 19:11:37 56° NNW
Cosmos 2237 4.4 19:07:18 10° SW 19:12:59 67° WNW 19:12:59 67° WNW
SL-16 R/B 3.1 19:07:53 10° SSW 19:11:20 39° SSW 19:11:20 39° SSW
Cosmos 1745 Rocket 4.0 19:10:55 10° NNW 19:17:03 73° W 19:23:09 10° S
COSMOS 2455 3.1 19:16:29 10° SW 19:21:46 65° WSW 19:21:46 65° WSW
Cosmos 1980 Rocket 4.0 19:24:57 10° W 19:29:30 24° NW 19:31:06 21° NNW
Cosmos 1844 Rocket 3.7 19:23:56 10° NNW 19:27:31 40° NW 19:27:31 40° NW
